CAPE
944 650 480 776 365 315 187 188 256 316 458 283 325 245 458 419 1185 1486 2073 2506 2885 2874 2910 3102 2896 2865 2654 2482 2725 3184 2783 3160 2602 2535 2553 3012 2910 2661 2598 2640 2646 3300 2612 2833 3395 3794 3246 2935 2825 2927 3493 3748 3711 3918 4292 4452 4091 3094 3716 4308 3552 4462 3826
930 606 754 546 589 568 232 403 403 348 557 496 448 602 579 520 1326 1353 1979 2478 2698 2703 2604 2784 2917 2766 2786 2927 2405 3026 3276 3465 3085 3300 2789 3340 3836 3623 2759 2507 2629 3646 3337 4141 3951 3179 3376 2926 3021 3109 3793 3702 3713 4056 3832 3802 4051 3801 3752 4067 3998 5072 5024
1136 581 800 852 933 885 740 776 423 532 527 483 298 272 463 1032 1480 2098 2276 2240 2677 2785 2486 2226 2590 2405 2556 2827 2832 2700 2589 2999 2706 2756 2482 2406 2343 2322 2018 2662 2488 2431 2976 3086 3372 2663 3230 2197 3089 3536 3714 3418 2543 4211 4121 3926 3602 3532 4266 5079 4198 4037 4646
1371 1145 1063 1125 1243 1240 930 896 788 783 757 751 360 217 840 1790 1484 2230 2138 2247 1944 2574 2642 2006 2014 1638 2270 2812 2547 2750 2439 2558 2576 2205 1960 2022 2230 2016 2513 2460 2684 2104 2241 2208 2116 1799 1743 2457 2156 3677 3385 3263 3610 3332 3289 3309 3097 3230 3544 3887 3651 4325 5096
1238 1016 975 1537 2164 1675 1143 1161 1003 1108 1166 1085 962 918 1125 1734 1573 1723 1665 1555 1866 2158 2029 1450 1467 1657 2114 2071 1746 1767 2001 1458 1909 1567 1765 1827 2083 1961 2028 1741 1592 1707 2244 1523 2495 2907 2139 2654 2740 2982 3089 3499 3613 4006 3945 3369 3229 4235 4168 3796 4035 4117 4470
1547 1942 1688 1813 1022 875 858 794 1022 1122 1162 1299 1421 1365 1092 1351 647 694 1062 1218 1618 1930 2164 1639 1237 1624 1270 1581 1466 1231 2001 2385 2476 2627 1803 2156 2154 1581 1574 1876 1395 1329 1837 1806 2041 961 2648 2337 2470 2635 2453 2018 2065 2514 2799 3504 2710 3504 3828 3800 3804 3447 2555
1775 1971 1115 1832 3320 1530 1612 961 574 1227 1466 2057 1571 1386 1320 1311 1012 1043 1028 1149 1686 1770 1154 960 627 1161 1402 1552 1933 2079 1772 1636 1938 1515 1401 956 1412 1557 1752 1562 1750 1128 601 1663 1628 1722 1817 2280 1885 2424 2335 2082 2475 2216 2871 3260 3388 3334 4021 3916 4234 4300 4263
1876 1962 2265 2514 1765 1849 742 845 577 1113 1319 714 1129 1256 1524 1305 1471 1486 1132 725 1109 386 877 695 975 1266 1472 1426 1622 1384 1722 1686 1245 1549 1508 1112 1062 1419 1174 834 1228 1448 1467 820 1331 1459 1240 1979 1121 1504 2166 1294 2250 2282 2904 3167 3899 3127 3090 3953 4079 3565 2262
2074 1819 1593 1416 1713 1680 1864 764 1410 976 693 1420 1076 1557 1644 1572 1935 1619 2493 4310 2623 1507 1589 1198 1450 2064 2186 2016 1975 1844 1824 1668 1762 1520 1112 770 582 645 675 788 861 1254 1148 871 793 1324 1388 1698 1361 2140 2348 2217 2849 3035 2734 3243 3341 3107 3267 3438 3771 3780 2942
1354 1269 1112 1072 1315 1223 1436 1507 1787 1650 1756 1942 1666 1164 736 1097 2104 3122 2957 3552 2416 2254 2464 2068 2347 2450 2495 1877 1801 1584 1711 1613 1789 1107 1024 714 542 360 302 309 464 774 809 782 681 790 1639 1369 1563 2348 2901 2590 2519 2824 2840 3760 3735 3517 2778 3504 3684 3974 4297
1044 1120 1218 1240 1679 1769 1838 2539 2110 1352 1730 1660 1451 1373 1550 874 1348 1586 2506 1992 2348 1335 1029 2625 2503 2390 2485 1864 1405 1285 1409 1150 1284 886 1480 1614 1252 365 254 165 126 289 416 523 535 464 552 1618 1534 2130 3275 1960 2490 2726 3447 3121 3321 3424 2452 2941 2788 3368 2969
1157 1142 1127 1312 1481 1135 1217 1176 1651 1687 1899 1733 1588 1839 2232 2245 1694 2023 2566 2348 2423 2029 2197 1975 3119 2819 2520 2176 1696 1646 1136 591 519 839 1113 1407 1230 1000 196 130 146 126 116 160 356 681 274 958 1114 1250 2923 3137 2863 2642 3045 3138 3097 3375 3214 2312 2750 2917 3006
908 1013 1007 1217 1459 1124 996 957 1121 1595 1780 1390 1574 1647 2346 2724 2546 2488 2579 2995 3093 3005 2404 2355 3138 4257 3845 3349 2288 2040 1507 796 716 538 808 1457 1687 1562 925 337 115 48 73 158 252 280 235 112 1025 1662 2078 3420 2920 2414 2592 3033 2689 3161 3360 2928 2666 2670 2933
1276 1287 1246 1208 1098 1155 1066 1004 898 1173 1369 2080 2427 2244 2016 2474 2168 2485 2552 3003 3118 3299 2618 2390 2267 4104 4596 3763 3524 3752 2838 2070 1545 1920 2180 2333 2275 2199 2048 1600 1145 790 485 131 168 146 128 135 210 915 1224 2028 2658 2760 2934 3140 3159 3565 3514 3132 2827 1916 2775
1239 1165 1246 1148 1112 933 962 968 1200 873 735 1567 2062 1786 1991 2023 2637 2473 2484 2443 2484 2081 2616 3027 2873 3006 2975 3325 3440 3463 3451 3108 3058 2769 2914 2953 2924 2788 2687 2544 1675 1586 1492 1109 673 64 152 204 177 204 734 1277 2466 2744 2216 1607 2470 3025 2938 2686 3429 2614 2059
950 1038 1088 1139 1410 1401 1515 1495 1729 1731 1548 1901 1774 1604 1818 2189 2494 1995 2513 2242 2017 2012 2348 3095 3192 3178 3115 3355 3532 3456 3450 3444 3052 2586 2798 3130 3202 3329 3145 2814 2934 2469 2800 3075 3119 1994 1393 1698 1429 495 224 623 1110 1661 1673 1325 1214 1445 2595 2220 2641 2764 2187
636 779 871 1210 1519 1061 1352 1286 1532 1595 1659 1658 1496 1771 1597 1618 1755 1805 1758 1837 2039 2164 2884 2762 2550 2886 2804 3021 3131 3285 3257 3276 2957 3108 3263 3366 3383 3609 3964 3711 3591 3383 3258 3237 3107 3548 3462 3261 2188 1246 612 154 213 516 548 447 1395 1180 1290 1477 2152 2436 2780
1026 988 939 1310 973 1203 1186 1524 1490 1473 1535 1560 1379 1484 1479 1282 1687 1546 1581 1595 1550 1789 2040 1941 1692 1836 1919 2033 2444 2842 2765 2700 2590 2667 2563 2573 2665 2707 2822 3002 3049 2941 2763 2632 2699 3010 2377 2262 2408 2316 1841 644 540 728 764 219 941 1024 1058 1080 1378 1651 2931
913 796 739 776 1186 1163 967 1021 1055 1068 1000 1040 1012 1063 1068 1223 1224 1206 1144 1136 1173 1543 1540 1527 1844 1918 1864 1562 1540 1439 1469 1775 1991 1863 1918 2091 2041 2141 2206 2433 2487 2626 2385 1843 1622 2279 2439 2041 2114 2441 1464 1028 906 1212 1074 1071 753 1127 912 938 1151 1362 1675
563 778 915 898 907 906 847 817 772 745 753 707 741 806 842 954 1177 1218 1082 1015 1039 1055 895 838 878 982 988 1059 1145 1293 1524 1447 1573 1330 1395 1375 1613 2092 2185 2043 1957 2051 1930 1644 1740 1924 2368 2254 2604 2917 1835 1472 1122 1418 943 1132 1088 1110 1103 1046 1092 1148 1291
781 1059 879 725 704 692 655 652 596 606 604 628 640 657 633 719 767 811 837 813 843 813 793 747 820 905 955 964 954 944 938 1055 1129 1115 1045 1159 1413 1456 1620 1619 1601 1435 1666 2084 1928 1884 2134 2519 2984 2151 1766 1460 1686 1466 550 699 1136 1092 1291 1259 1114 1050 1066
918 950 877 690 602 615 588 590 571 570 627 629 597 619 602 606 638 669 679 644 662 742 726 672 693 677 737 794 771 782 839 900 964 985 934 975 1015 966 920 908 935 979 1138 1276 1285 1422 2211 2350 1921 1704 1461 1237 1131 1161 976 881 1109 1342 1389 1464 1513 1513 1761
943 863 762 655 589 587 542 524 585 616 620 582 568 510 518 500 490 513 494 487 490 459 449 418 512 646 648 665 696 656 700 738 711 776 772 754 750 778 748 683 754 885 916 977 1056 1477 1523 1712 1578 1503 1506 1271 1022 1029 1028 920 1005 1187 1317 1297 1373 1411 1827
684 609 579 508 581 645 610 547 583 564 566 484 518 476 435 463 467 452 415 396 386 382 368 368 395 448 538 573 578 624 599 612 632 684 727 680 690 682 701 653 615 794 903 899 974 1112 1148 1149 1142 1052 1028 1049 1099 805 1045 912 861 882 932 990 908 1066 1151
573 555 532 512 528 484 405 446 462 428 447 426 351 363 329 364 372 331 311 315 320 360 360 362 389 403 411 414 398 530 506 500 500 536 604 582 555 576 565 605 622 633 655 616 587 800 927 1012 1061 827 746 848 930 949 1077 837 694 642 735 852 945 1021 1039
335 323 302 310 354 369 309 234 221 292 259 323 402 478 462 358 252 219 206 244 327 374 362 367 391 343 235 10 286 420 484 468 461 495 504 515 506 521 332 339 373 312 305 319 462 517 570 680 816 770 555 498 460 507 693 722 693 748 832 844 886 884 952
196 285 266 196 138 126 97 152 150 54 207 232 243 293 265 170 19 0 78 170 240 311 299 274 281 276 237 221 301 327 252 261 359 418 373 300 327 345 272 269 286 270 299 316 331 324 430 227 375 450 348 402 481 563 657 636 639 580 562 645 711 724 685
128 23 7 36 122 103 0 0 0 0 12 163 187 238 232 219 183 163 0 71 169 240 318 300 229 221 218 240 253 198 0 180 259 331 348 294 260 324 298 264 246 251 227 222 214 239 269 270 385 398 438 404 415 435 331 466 544 632 667 696 689 648 551
125 80 14 0 0 56 49 0 0 0 50 69 140 124 114 206 325 348 252 109 6 142 237 330 314 254 203 208 228 174 119 0 110 265 267 246 141 14 209 249 234 208 197 214 224 190 129 9 248 351 330 256 220 149 210 287 330 402 496 545 565 517 484
141 92 19 0 0 38 0 0 0 0 0 0 0 84 119 188 295 310 278 207 157 151 158 202 267 273 254 231 218 207 182 181 114 120 25 66 75 0 143 194 216 194 180 194 203 206 160 26 40 13 110 123 145 0 37 133 223 322 352 390 404 419 389
178 147 15 0 0 0 0 0 0 0 0 0 0 0 102 148 177 208 226 246 208 173 181 207 228 235 239 246 213 190 126 158 172 73 0 103 90 0 138 188 183 169 160 169 189 222 204 118 34 67 103 191 139 0 0 73 84 149 235 277 323 317 293
218 188 43 2 2 0 0 0 0 0 0 0 0 0 54 114 138 178 244 246 238 210 141 130 86 95 170 206 223 210 176 134 142 146 143 156 148 121 18 36 118 129 145 157 171 161 48 10 5 10 36 17 24 22 14 17 2 123 104 54 108 154 158
246 233 89 11 2 0 0 0 0 0 0 0 0 0 0 0 0 18 144 201 223 226 179 102 24 0 0 106 144 157 146 169 162 152 169 172 178 151 109 88 111 122 107 0 0 146 0 0 10 24 12 23 31 100 24 106 0 0 0 0 67 110 125
296 100 131 116 31 36 1 0 0 0 0 0 0 0 0 0 0 0 0 0 0 68 123 122 89 24 0 0 0 93 99 87 88 137 154 120 100 119 139 124 109 112 106 92 17 0 0 0 2 0 0 0 2 36 108 0 0 0 0 0 59 102 67
198 130 90 19 2 4 0 0 0 0 0 0 0 0 0 0 0 0 0 0 0 0 0 3 81 78 24 0 0 0 0 21 71 109 118 94 100 65 95 117 7 0 3 0 0 0 0 0 0 0 0 0 0 3 0 0 0 0 0 0 0 0 0
352 392 174 40 22 13 0 0 0 0 0 0 0 0 0 0 0 0 0 0 0 0 0 0 0 0 0 0 0 0 0 0 0 0 33 49 44 76 81 74 37 0 0 0 0 0 0 0 0 0 0 0 0 0 0 0 0 0 0 0 0 0 0
485 392 436 155 119 90 14 1 0 0 0 0 0 0 0 0 0 0 0 0 0 0 0 0 0 0 0 0 0 0 0 0 0 0 0 0 0 0 0 0 0 0 0 0 0 0 0 0 0 0 0 0 0 0 0 0 0 0 0 0 0 0 0
569 555 500 336 300 322 154 70 28 17 14 0 0 0 0 0 0 0 0 0 0 0 0 0 0 0 0 0 0 0 0 0 0 0 0 0 0 0 0 0 0 0 0 0 0 0 0 0 0 0 0 0 0 0 0 0 0 0 0 0 0 0 0
Wind_Speed
4 8 11 12 12 11 11 11 12 13 15 16 17 18 16 20 22 20 17 15 14 13 13 13 13 13 12 9 8 10 9 8 7 6 6 7 4 4 4 4 4 2 3 3 4 5 3 2 2 2 1 2 4 2 2 1 1 2 3 3 4 5 2
3 2 6 12 13 13 13 13 14 14 16 15 15 19 19 20 23 19 20 18 16 15 14 14 13 14 13 11 10 8 10 9 9 8 8 6 4 6 3 5 5 4 6 6 6 2 5 3 5 5 2 2 4 1 2 2 1 0 3 4 4 5 5
2 4 1 7 11 13 15 16 15 16 17 15 15 18 18 22 23 23 23 20 19 16 15 15 15 15 15 12 11 8 9 10 10 9 9 5 5 5 5 7 7 4 8 8 6 3 3 6 4 6 4 1 4 3 1 1 2 1 4 2 4 5 5
5 4 5 4 7 10 13 15 16 19 17 17 16 18 20 25 25 24 23 21 20 18 16 17 16 17 16 14 11 10 10 11 11 9 8 7 5 4 6 7 7 7 9 9 6 4 8 6 5 5 5 3 5 1 1 1 1 1 2 3 2 5 5
8 7 8 10 12 12 11 12 15 20 19 19 17 19 21 25 26 25 24 21 20 19 18 18 18 19 18 16 14 13 11 10 11 10 9 8 6 7 7 5 7 7 7 8 8 10 10 9 6 4 7 5 6 4 2 3 2 2 2 3 3 4 5
11 14 19 15 11 10 8 11 16 19 19 18 19 21 21 23 22 22 22 23 22 20 19 19 18 20 19 17 15 16 15 13 13 12 10 12 10 9 8 6 7 4 9 7 11 9 10 9 5 8 6 6 5 6 4 4 4 4 2 3 3 4 4
16 17 11 9 11 10 10 14 15 18 21 21 20 22 22 21 20 21 21 23 21 21 20 19 19 21 19 18 17 16 16 13 13 12 12 11 14 10 9 8 7 5 6 10 10 9 9 8 8 6 8 6 7 7 6 4 4 5 6 4 3 6 5
16 14 13 16 18 23 22 21 13 22 25 23 21 24 23 20 20 21 19 21 19 20 19 21 21 23 20 18 19 16 16 14 14 13 15 13 13 13 11 8 9 7 7 9 8 8 10 9 6 7 8 8 8 8 8 7 6 8 6 4 5 4 4
17 19 24 25 29 30 26 21 21 31 34 32 27 29 24 23 23 20 23 25 21 19 19 20 19 22 21 19 19 18 17 17 15 15 14 14 14 13 12 12 10 11 9 7 7 8 9 9 6 9 10 8 11 10 9 8 6 7 8 6 6 6 3
16 24 30 28 25 19 23 26 24 25 28 28 30 32 30 29 25 27 26 25 25 25 18 17 18 19 20 19 20 19 18 17 17 16 14 14 15 13 13 13 12 13 11 9 8 8 9 8 8 10 11 10 10 11 9 12 10 8 7 9 7 6 6
17 24 24 18 15 19 28 34 30 25 29 32 32 28 25 28 20 20 24 25 23 24 20 16 17 18 19 19 18 18 17 17 17 16 17 17 18 14 13 13 12 13 12 11 10 10 10 12 9 9 12 9 10 10 11 10 10 10 7 9 8 8 6
19 23 19 17 17 19 24 29 29 27 27 28 29 27 26 29 25 21 25 24 22 21 19 15 17 18 19 18 17 18 17 16 16 15 16 17 19 19 15 13 12 11 13 12 11 12 10 12 11 11 11 11 9 10 11 11 10 11 9 8 10 7 8
22 21 16 14 13 11 16 23 26 28 28 27 29 29 28 30 29 26 26 25 23 23 23 19 20 18 21 19 18 18 17 16 16 16 16 19 20 20 18 16 15 nan nan 13 12 10 10 9 15 14 12 11 9 8 11 12 11 12 11 10 9 12 13
22 23 16 15 12 8 10 16 17 19 23 28 31 31 32 33 31 30 27 28 28 26 24 22 21 20 23 20 20 20 18 17 17 17 18 19 19 19 18 16 15 15 17 15 12 9 8 8 11 15 13 12 11 12 12 13 12 13 13 12 11 11 13
21 23 24 23 18 14 15 14 16 19 19 22 29 34 37 36 37 34 29 28 29 27 26 26 26 26 23 21 21 21 22 20 19 19 19 18 18 18 16 14 13 14 15 14 12 nan 10 10 8 12 15 13 15 15 13 11 12 13 13 12 12 13 13
21 21 22 23 22 21 19 17 19 20 18 21 22 28 34 39 38 33 29 29 30 30 29 30 27 27 25 23 23 23 24 23 22 21 22 22 21 19 18 15 15 14 17 19 19 17 18 17 16 12 14 16 15 14 14 14 14 13 11 13 15 16 15
26 22 25 27 24 23 23 22 23 22 22 22 22 24 28 33 37 37 34 31 32 34 36 33 28 27 27 26 26 25 26 25 25 25 24 24 23 22 21 21 21 21 21 21 20 20 21 21 20 18 16 16 17 16 15 24 27 30 29 19 15 18 17
32 29 29 27 27 26 24 24 24 24 23 23 22 23 25 27 32 36 34 34 34 33 34 33 35 33 31 30 29 29 26 26 26 26 26 25 24 22 23 23 22 22 22 22 22 23 24 24 23 24 23 23 29 30 30 27 32 34 33 32 30 28 21
26 21 24 22 27 30 28 25 26 26 26 27 27 27 28 32 38 43 46 43 36 35 35 36 36 36 36 36 33 34 32 31 29 29 28 28 26 25 25 23 22 22 22 21 22 24 26 23 21 24 33 34 33 31 30 31 31 32 32 33 33 30 26
23 17 26 31 33 32 32 31 29 29 30 28 27 27 25 27 29 34 38 42 44 45 45 47 47 47 45 45 43 40 39 37 34 31 30 28 28 28 27 25 23 23 22 21 22 23 24 22 21 28 31 30 32 32 33 32 32 31 33 34 33 31 28
27 27 27 32 34 34 36 36 34 32 30 29 28 26 24 24 24 26 30 33 37 39 39 40 41 44 46 46 45 45 44 42 37 38 35 31 30 32 32 32 30 28 27 27 28 29 28 27 28 31 31 30 30 33 35 34 34 34 34 34 33 32 27
32 29 30 33 36 35 36 36 35 33 30 27 27 26 25 24 23 24 26 27 30 32 35 34 33 35 39 45 47 50 48 45 44 45 45 40 37 35 36 35 31 27 29 30 31 31 32 32 31 31 30 30 30 30 33 34 38 36 35 35 35 30 28
36 31 30 33 35 37 37 37 38 37 34 31 29 28 27 25 25 26 25 25 25 27 31 33 31 28 28 32 41 47 47 44 43 44 43 43 43 42 39 37 35 31 32 31 29 25 25 27 29 27 28 30 33 34 36 36 36 37 37 37 38 34 31
37 34 34 35 35 34 34 36 38 39 37 35 33 31 29 28 28 28 28 28 26 26 27 30 29 26 26 27 29 35 38 37 35 36 36 36 38 37 35 35 34 31 28 27 25 23 19 24 24 24 26 31 34 36 39 39 38 39 38 40 40 34 31
38 37 36 35 34 33 32 32 34 37 37 36 34 32 30 30 30 30 30 29 29 28 29 28 26 25 26 27 26 27 28 29 29 30 29 29 30 29 28 29 29 25 23 22 21 21 20 19 20 22 27 32 35 39 41 42 42 41 37 41 43 37 30
37 37 38 38 37 36 37 35 33 35 37 35 33 31 30 28 28 28 28 29 30 31 30 29 27 25 27 nan 29 27 26 27 27 29 29 27 26 25 25 25 23 19 21 21 20 20 19 17 17 30 33 35 33 34 37 41 40 37 35 39 44 40 30
39 37 37 38 37 35 nan 37 37 nan 38 34 31 31 29 28 nan nan nan 31 32 34 33 30 29 29 29 31 31 31 31 30 29 30 29 27 27 25 26 24 23 24 24 22 19 20 18 20 19 33 36 33 30 27 27 30 33 34 36 38 42 43 37
42 nan nan nan 35 35 nan nan nan nan nan 33 32 32 31 31 31 30 nan nan 34 33 32 30 31 31 31 32 33 33 nan 33 29 27 27 25 26 26 28 29 28 25 25 23 22 21 21 22 26 31 35 33 30 28 27 30 32 29 33 38 40 41 39
40 nan nan nan nan nan nan nan nan nan nan nan 35 34 32 33 34 34 33 34 nan 34 33 33 33 33 33 33 33 32 32 nan 32 31 27 27 27 nan 27 26 27 26 25 24 24 24 25 nan 27 28 29 30 30 29 30 30 28 28 29 34 38 37 35
38 nan nan nan nan nan nan nan nan nan nan nan nan nan 35 34 36 37 37 37 34 34 33 33 32 33 34 33 33 33 33 33 33 34 nan nan nan nan 30 26 25 27 26 25 25 25 26 nan nan nan 27 28 29 nan nan 28 26 22 22 24 28 29 29
39 39 nan nan nan nan nan nan nan nan nan nan nan nan 37 37 38 39 39 37 36 35 34 33 33 34 35 35 35 35 33 33 31 nan nan 34 nan nan 37 34 31 30 28 27 27 29 30 28 nan nan 27 31 31 nan nan nan nan 25 22 23 23 24 26
39 38 nan nan nan nan nan nan nan nan nan nan nan nan nan 38 38 39 39 38 38 38 38 37 nan nan 35 35 35 35 35 34 35 35 35 35 34 35 nan nan 36 33 30 31 32 32 nan nan nan nan nan nan nan nan nan nan nan 31 31 nan 29 28 30
42 39 nan nan nan nan nan nan nan nan nan nan nan nan nan nan nan nan 39 39 39 39 38 37 nan nan nan 38 37 37 37 36 34 34 33 34 35 34 34 nan 35 33 32 nan nan 34 nan nan nan nan nan nan nan nan nan 35 nan nan nan nan nan 28 29
41 nan 41 42 nan nan nan nan nan nan nan nan nan nan nan nan nan nan nan nan nan nan 37 35 nan nan nan nan nan nan nan nan nan 34 36 40 41 39 38 37 33 36 38 nan nan nan nan nan nan nan nan nan nan nan 37 nan nan nan nan nan nan 28 nan
38 40 nan nan nan nan nan nan nan nan nan nan nan nan nan nan nan nan nan nan nan nan nan nan nan nan nan nan nan nan nan nan nan 44 41 nan 44 nan nan 39 nan nan nan nan nan nan nan nan nan nan nan nan nan nan nan nan nan nan nan nan nan nan nan
36 38 38 nan nan nan nan nan nan nan nan nan nan nan nan nan nan nan nan nan nan nan nan nan nan nan nan nan nan nan nan nan nan nan nan nan nan nan nan nan nan nan nan nan nan nan nan nan nan nan nan nan nan nan nan nan nan nan nan nan nan nan nan
32 35 34 37 37 nan nan nan nan nan nan nan nan nan nan nan nan nan nan nan nan nan nan nan nan nan nan nan nan nan nan nan nan nan nan nan nan nan nan nan nan nan nan nan nan nan nan nan nan nan nan nan nan nan nan nan nan nan nan nan nan nan nan
32 34 35 35 34 37 38 nan nan nan nan nan nan nan nan nan nan nan nan nan nan nan nan nan nan nan nan nan nan nan nan nan nan nan nan nan nan nan nan nan nan nan nan nan nan nan nan nan nan nan nan nan nan nan nan nan nan nan nan nan nan nan nan
Wind_Direction
171 244 245 253 262 271 278 275 276 272 267 261 259 269 261 259 259 254 264 263 265 265 261 261 266 262 267 259 262 264 271 270 264 264 246 236 261 259 278 314 322 293 279 309 274 277 316 296 298 307 296 36 316 5 332 13 313 357 295 281 283 268 313
60 313 240 253 262 269 277 276 279 274 275 269 265 260 257 261 262 261 262 264 267 266 266 267 262 265 268 261 258 260 272 281 277 263 260 254 241 264 282 269 277 288 269 239 258 253 297 307 297 305 360 39 299 325 27 333 19 309 285 301 302 283 266
7 339 291 236 259 262 267 267 274 272 282 280 279 268 262 257 257 256 262 266 266 264 265 272 268 269 266 264 267 269 272 277 272 273 282 280 303 312 286 277 277 283 284 276 276 299 267 290 282 301 321 70 304 331 320 8 327 340 294 329 295 316 324
305 315 289 254 263 259 268 262 263 266 276 275 280 280 264 257 259 255 262 265 268 271 268 272 272 275 271 268 268 266 270 273 279 288 297 299 305 290 266 261 261 257 274 281 282 282 273 268 280 277 291 272 261 299 319 299 330 328 308 296 283 265 276
303 302 267 254 237 221 261 271 267 258 262 270 271 271 269 261 260 257 260 266 267 275 276 276 272 270 265 271 266 266 267 274 274 280 286 287 280 275 268 265 273 272 257 281 276 263 256 266 275 280 285 295 298 297 295 289 275 229 222 285 289 293 292
292 257 236 218 240 226 242 274 274 263 258 262 268 270 271 269 270 272 266 267 265 266 265 270 273 267 268 270 266 266 259 256 254 253 260 277 273 270 281 280 272 256 286 270 263 266 277 268 281 285 294 296 311 311 301 285 299 304 299 278 277 292 288
268 261 264 260 247 256 234 287 288 255 243 243 261 264 269 267 270 265 262 266 262 263 274 273 268 264 258 260 256 258 268 266 259 265 258 261 271 272 267 264 285 295 275 275 274 273 281 274 267 278 273 287 276 296 278 282 288 295 269 273 291 285 282
273 274 271 254 245 234 218 204 261 253 236 240 240 254 261 263 261 259 262 269 266 270 265 262 257 262 256 254 263 257 260 263 264 259 255 260 259 262 268 265 266 254 258 282 270 267 278 261 277 261 271 271 264 270 281 264 274 292 272 277 276 260 291
257 249 246 237 228 222 228 219 221 235 215 203 226 234 242 249 235 244 253 250 253 253 258 255 252 257 258 253 257 263 265 261 256 254 257 261 256 259 258 262 263 262 258 259 271 270 262 276 263 254 260 249 265 268 277 286 279 269 284 279 268 275 270
249 247 248 239 227 223 210 226 240 243 227 230 237 242 232 216 216 231 241 247 244 230 236 254 251 255 256 257 256 258 256 255 255 255 245 247 252 250 255 252 253 253 255 258 250 252 259 247 244 253 254 255 246 256 252 268 272 268 264 275 279 280 268
246 246 257 265 243 221 215 222 232 236 232 230 236 239 240 241 228 229 244 249 246 243 219 214 261 261 256 257 255 257 255 258 252 255 248 240 238 241 244 245 246 251 253 252 251 257 255 257 242 239 257 261 259 253 253 251 263 264 265 267 262 258 275
256 253 251 259 245 217 222 227 234 242 238 234 234 232 229 238 244 242 245 249 247 245 242 229 252 261 257 257 258 250 255 257 259 255 250 243 239 232 225 235 241 239 254 252 246 251 252 265 271 259 259 259 249 255 259 257 255 261 254 256 264 266 262
266 262 255 262 254 218 218 222 229 237 238 238 235 234 234 233 237 242 243 250 245 242 239 243 244 254 260 262 260 253 250 253 251 254 249 247 243 240 230 220 220 nan nan 261 250 241 258 258 267 261 260 262 261 255 257 256 254 251 258 255 254 258 254
279 275 276 272 277 277 245 245 247 236 236 240 238 238 235 231 238 240 238 240 241 240 248 254 264 255 259 262 261 256 255 250 247 244 244 246 248 242 235 227 223 220 227 242 259 264 252 253 264 279 268 268 263 258 254 258 255 250 247 251 257 253 261
285 285 287 286 288 277 264 256 247 245 233 235 238 235 234 230 238 237 236 238 243 249 251 253 250 252 253 253 254 255 254 249 243 243 243 243 247 249 246 239 229 226 224 231 237 nan 267 271 262 267 284 272 265 261 260 260 262 256 253 254 251 251 251
276 280 280 282 281 276 271 264 257 254 256 256 247 241 231 228 234 246 241 242 246 247 249 249 248 252 250 249 246 245 248 248 246 245 248 246 244 242 244 242 238 233 232 229 228 232 243 248 249 240 259 277 276 274 262 262 261 249 291 270 250 250 249
257 254 260 258 259 265 264 261 259 256 253 254 255 248 240 234 233 235 234 237 239 240 236 235 241 244 244 246 247 245 245 246 245 245 247 247 244 243 243 242 239 239 237 237 238 241 241 244 244 244 239 242 255 258 249 238 241 229 235 246 262 263 251
233 230 238 239 249 250 255 257 257 257 260 263 263 260 248 239 236 237 240 241 242 242 240 239 237 234 232 232 237 243 244 245 244 243 241 242 243 242 243 244 247 244 243 245 245 248 247 244 245 247 244 242 239 238 246 251 234 229 232 236 232 229 238
258 254 255 249 244 238 239 248 250 251 254 251 250 251 247 243 238 234 233 234 240 248 251 248 244 240 234 236 233 230 230 235 241 241 238 237 238 241 242 245 246 250 252 253 252 253 254 251 246 246 252 258 264 263 254 249 235 234 235 235 234 231 229
248 240 249 245 242 239 238 237 238 244 246 247 250 250 246 243 240 238 239 241 242 246 249 251 250 248 244 239 237 238 237 237 237 239 237 234 236 242 246 249 249 249 254 258 262 264 266 263 256 254 260 261 266 265 259 249 237 236 238 238 235 233 234
262 266 262 255 249 246 243 240 239 240 240 238 242 244 243 244 244 243 242 242 246 247 248 251 251 250 247 244 240 239 238 237 240 241 236 232 236 243 247 248 245 244 243 245 250 252 257 257 257 258 265 266 262 261 258 249 236 237 238 238 234 230 237
262 262 263 263 262 257 254 252 248 247 246 241 240 240 241 245 247 248 246 244 246 246 247 248 251 254 253 247 241 240 241 242 243 242 242 241 243 246 249 249 250 250 247 245 247 249 251 256 257 259 264 265 264 264 264 256 244 240 239 237 233 228 237
254 254 255 261 263 261 260 261 258 256 253 252 252 252 253 252 252 251 248 248 248 249 250 250 253 255 249 242 237 235 237 242 245 245 243 243 244 245 246 248 250 253 249 245 245 249 254 255 255 257 264 264 263 263 261 257 248 243 242 240 233 234 237
253 253 253 256 259 261 262 265 265 259 254 253 253 254 254 255 256 255 255 254 252 253 252 252 254 255 251 244 234 229 228 232 238 241 243 243 244 243 243 244 243 243 242 241 240 239 245 258 258 263 266 264 267 266 263 260 254 249 244 241 235 234 237
254 255 253 251 257 261 258 257 265 267 261 256 254 255 258 259 260 260 261 260 260 259 259 258 259 257 253 248 243 235 231 232 233 236 241 244 244 243 240 239 240 240 242 240 236 233 238 261 279 282 276 271 267 268 263 258 255 250 246 240 237 236 236
255 258 258 256 257 259 261 264 265 259 255 255 254 253 254 255 256 259 261 262 263 263 262 261 262 263 260 nan 248 245 241 237 239 242 241 243 244 246 251 253 251 246 253 247 243 238 234 247 280 283 278 273 269 264 264 260 254 249 245 241 236 232 235
257 258 260 259 260 262 nan 258 256 nan 249 246 246 248 251 251 nan nan nan 255 258 259 263 266 266 265 266 265 262 257 251 244 242 241 237 243 252 245 245 253 259 261 260 257 249 241 231 233 246 264 267 271 273 270 270 273 264 251 247 246 240 233 232
261 nan nan nan 261 258 nan nan nan nan nan 250 250 252 255 255 253 252 nan nan 252 256 259 262 261 264 266 265 266 267 nan 260 252 247 244 241 242 247 249 246 245 250 259 259 255 250 237 230 236 247 257 264 270 272 277 282 281 270 253 247 243 238 233
260 nan nan nan nan nan nan nan nan nan nan nan 257 256 257 258 257 255 252 250 nan 249 249 249 254 258 262 267 269 270 272 nan 263 256 248 246 240 nan 242 247 250 252 256 259 260 252 244 nan 245 252 259 265 271 276 281 286 287 277 259 245 241 239 239
259 nan nan nan nan nan nan nan nan nan nan nan nan nan 256 257 255 254 254 251 246 248 250 251 251 254 256 257 262 267 269 270 268 265 nan nan nan nan 247 240 239 243 245 252 254 256 258 nan nan nan 269 272 276 nan nan 276 274 271 267 254 243 239 237
265 267 nan nan nan nan nan nan nan nan nan nan nan nan 258 257 256 254 254 254 253 250 248 247 249 251 252 255 258 259 261 266 269 nan nan 262 nan nan 258 255 251 251 248 244 249 255 254 251 nan nan 267 277 279 nan nan nan nan 272 272 272 263 250 239
265 265 nan nan nan nan nan nan nan nan nan nan nan nan nan 260 258 257 256 258 257 256 254 252 nan nan 249 251 251 252 256 259 262 262 262 263 263 264 nan nan 260 256 250 253 252 248 nan nan nan nan nan nan nan nan nan nan nan 261 259 nan 252 245 236
270 267 nan nan nan nan nan nan nan nan nan nan nan nan nan nan nan nan 260 260 259 257 256 257 nan nan nan 248 251 253 252 251 253 259 263 264 266 263 263 nan 261 260 257 nan nan 249 nan nan nan nan nan nan nan nan nan 257 nan nan nan nan nan 246 242
263 nan 263 265 nan nan nan nan nan nan nan nan nan nan nan nan nan nan nan nan nan nan 259 258 nan nan nan nan nan nan nan nan nan 252 253 253 254 255 253 254 257 261 255 nan nan nan nan nan nan nan nan nan nan nan 256 nan nan nan nan nan nan 248 nan
261 264 nan nan nan nan nan nan nan nan nan nan nan nan nan nan nan nan nan nan nan nan nan nan nan nan nan nan nan nan nan nan nan 248 247 nan 259 nan nan 253 nan nan nan nan nan nan nan nan nan nan nan nan nan nan nan nan nan nan nan nan nan nan nan
266 266 267 nan nan nan nan nan nan nan nan nan nan nan nan nan nan nan nan nan nan nan nan nan nan nan nan nan nan nan nan nan nan nan nan nan nan nan nan nan nan nan nan nan nan nan nan nan nan nan nan nan nan nan nan nan nan nan nan nan nan nan nan
273 273 271 271 270 nan nan nan nan nan nan nan nan nan nan nan nan nan nan nan nan nan nan nan nan nan nan nan nan nan nan nan nan nan nan nan nan nan nan nan nan nan nan nan nan nan nan nan nan nan nan nan nan nan nan nan nan nan nan nan nan nan nan
282 280 280 279 275 273 272 nan nan nan nan nan nan nan nan nan nan nan nan nan nan nan nan nan nan nan nan nan nan nan nan nan nan nan nan nan nan nan nan nan nan nan nan nan nan nan nan nan nan nan nan nan nan nan nan nan nan nan nan nan nan nan nan